Hourly Weather Baraki Barak

Today, 30 September, Wednesday

Time Temperature Precipitation Wind Pressure Humidity
00:00 +15°C° 0 mm 2 mps 596 mmHg 39%
01:00 +15°C° 0 mm 2 mps 596 mmHg 41%
02:00 +14°C° 0 mm 2 mps 596 mmHg 43%
03:00 +13°C° 0 mm 1 mps 595 mmHg 45%
04:00 +13°C° 0 mm 1 mps 595 mmHg 47%
05:00 +12°C° 0 mm 3 mps 595 mmHg 44%
06:00 +12°C° 0 mm 3 mps 596 mmHg 43%
07:00 +13°C° 0 mm 3 mps 596 mmHg 42%
08:00 +13°C° 0 mm 3 mps 597 mmHg 41%
09:00 +14°C° 0 mm 3 mps 597 mmHg 37%
10:00 +16°C° 0 mm 3 mps 597 mmHg 33%
11:00 +18°C° 0 mm 3 mps 598 mmHg 29%
12:00 +19°C° 0 mm 4 mps 598 mmHg 25%
13:00 +20°C° 0 mm 4 mps 598 mmHg 20%
14:00 +21°C° 0 mm 4 mps 598 mmHg 15%
15:00 +21°C° 0 mm 4 mps 598 mmHg 14%
16:00 +21°C° 0 mm 4 mps 598 mmHg 14%
17:00 +21°C° 0 mm 4 mps 598 mmHg 13%
18:00 +20°C° 0 mm 3 mps 598 mmHg 14%
19:00 +19°C° 0 mm 3 mps 598 mmHg 14%
20:00 +18°C° 0 mm 2 mps 598 mmHg 15%
21:00 +17°C° 0 mm 2 mps 598 mmHg 16%
22:00 +15°C° 0 mm 2 mps 597 mmHg 18%
23:00 +14°C° 0 mm 2 mps 597 mmHg 20%

Tomorrow, 1 October, Thursday

Time Temperature Precipitation Wind Pressure Humidity
00:00 +13°C° 0 mm 1 mps 597 mmHg 21%
01:00 +12°C° 0 mm 1 mps 596 mmHg 21%
02:00 +12°C° 0 mm 1 mps 596 mmHg 22%
03:00 +11°C° 0 mm 1 mps 595 mmHg 23%
04:00 +10°C° 0 mm 1 mps 595 mmHg 24%
05:00 +9°C° 0 mm 0 mps 595 mmHg 25%
06:00 +10°C° 0 mm 0 mps 596 mmHg 23%
07:00 +12°C° 0 mm 0 mps 597 mmHg 21%
08:00 +13°C° 0 mm 0 mps 598 mmHg 18%
09:00 +15°C° 0 mm 0 mps 598 mmHg 17%
10:00 +16°C° 0 mm 0 mps 599 mmHg 16%
11:00 +20°C° 0 mm 1 mps 599 mmHg 15%
12:00 +21°C° 0 mm 1 mps 599 mmHg 13%
13:00 +22°C° 0 mm 1 mps 599 mmHg 10%
14:00 +23°C° 0 mm 1 mps 599 mmHg 8%
15:00 +23°C° 0 mm 1 mps 599 mmHg 8%
16:00 +23°C° 0 mm 1 mps 599 mmHg 7%
17:00 +23°C° 0 mm 2 mps 599 mmHg 7%
18:00 +20°C° 0 mm 2 mps 598 mmHg 9%
19:00 +19°C° 0 mm 2 mps 598 mmHg 10%
20:00 +17°C° 0 mm 2 mps 598 mmHg 12%
21:00 +16°C° 0 mm 1 mps 597 mmHg 13%
22:00 +15°C° 0 mm 1 mps 597 mmHg 15%
23:00 +14°C° 0 mm 1 mps 597 mmHg 16%

Day after tomorrow, 2 October, Friday

Time Temperature Precipitation Wind Pressure Humidity
00:00 +14°C° 0 mm 1 mps 597 mmHg 17%
01:00 +13°C° 0 mm 1 mps 596 mmHg 18%
02:00 +13°C° 0 mm 1 mps 596 mmHg 18%
03:00 +12°C° 0 mm 1 mps 596 mmHg 19%
04:00 +11°C° 0 mm 1 mps 596 mmHg 19%
05:00 +11°C° 0 mm 1 mps 595 mmHg 19%
06:00 +12°C° 0 mm 1 mps 596 mmHg 17%
07:00 +14°C° 0 mm 1 mps 597 mmHg 15%
08:00 +15°C° 0 mm 1 mps 598 mmHg 12%
09:00 +18°C° 0 mm 1 mps 599 mmHg 12%
10:00 +19°C° 0 mm 1 mps 599 mmHg 11%
11:00 +20°C° 0 mm 2 mps 599 mmHg 10%
12:00 +22°C° 0 mm 1 mps 599 mmHg 10%
13:00 +23°C° 0 mm 1 mps 599 mmHg 10%
14:00 +24°C° 0 mm 1 mps 599 mmHg 10%
15:00 +24°C° 0 mm 2 mps 599 mmHg 10%
16:00 +24°C° 0 mm 3 mps 599 mmHg 10%
17:00 +23°C° 0 mm 4 mps 599 mmHg 10%
18:00 +21°C° 0 mm 3 mps 599 mmHg 13%
19:00 +19°C° 0 mm 2 mps 599 mmHg 15%
20:00 +18°C° 0 mm 1 mps 598 mmHg 18%
21:00 +18°C° 0 mm 1 mps 598 mmHg 20%
22:00 +16°C° 0 mm 1 mps 598 mmHg 22%
23:00 +14°C° 0 mm 0 mps 598 mmHg 24%

3 October, Saturday

Time Temperature Precipitation Wind Pressure Humidity
00:00 +13°C° 0 mm 0 mps 597 mmHg 24%
01:00 +14°C° 0 mm 1 mps 597 mmHg 25%
02:00 +13°C° 0 mm 1 mps 597 mmHg 26%
03:00 +12°C° 0 mm 1 mps 596 mmHg 27%
04:00 +12°C° 0 mm 1 mps 596 mmHg 28%
05:00 +11°C° 0 mm 1 mps 596 mmHg 30%
06:00 +12°C° 0 mm 1 mps 597 mmHg 28%
07:00 +13°C° 0 mm 1 mps 598 mmHg 25%
08:00 +15°C° 0 mm 1 mps 598 mmHg 23%
09:00 +16°C° 0 mm 1 mps 599 mmHg 21%
10:00 +19°C° 0 mm 1 mps 599 mmHg 18%
11:00 +20°C° 0 mm 1 mps 600 mmHg 15%
12:00 +21°C° 0 mm 1 mps 600 mmHg 13%
13:00 +22°C° 0 mm 1 mps 600 mmHg 11%
14:00 +24°C° 0 mm 1 mps 600 mmHg 9%
15:00 +24°C° 0 mm 1 mps 600 mmHg 9%
16:00 +24°C° 0 mm 2 mps 600 mmHg 8%
17:00 +24°C° 0 mm 2 mps 600 mmHg 8%
18:00 +21°C° 0 mm 2 mps 599 mmHg 10%
19:00 +20°C° 0 mm 1 mps 599 mmHg 12%
20:00 +18°C° 0 mm 1 mps 599 mmHg 15%
21:00 +18°C° 0 mm 1 mps 599 mmHg 17%
22:00 +16°C° 0 mm 1 mps 599 mmHg 19%
23:00 +14°C° 0 mm 0 mps 598 mmHg 21%

4 October, Sunday

Time Temperature Precipitation Wind Pressure Humidity
00:00 +13°C° 0 mm 0 mps 598 mmHg 23%
01:00 +12°C° 0 mm 0 mps 598 mmHg 24%
02:00 +12°C° 0 mm 0 mps 597 mmHg 25%
03:00 +11°C° 0 mm 0 mps 597 mmHg 26%
04:00 +11°C° 0 mm 0 mps 597 mmHg 26%
05:00 +10°C° 0 mm 0 mps 596 mmHg 27%
06:00 +12°C° 0 mm 0 mps 597 mmHg 24%
07:00 +14°C° 0 mm 1 mps 598 mmHg 22%
08:00 +16°C° 0 mm 1 mps 600 mmHg 19%
09:00 +19°C° 0 mm 1 mps 600 mmHg 17%
10:00 +18°C° 0 mm 0 mps 600 mmHg 15%
11:00 +20°C° 0 mm 0 mps 601 mmHg 12%
12:00 +23°C° 0 mm 1 mps 600 mmHg 11%
13:00 +24°C° 0 mm 1 mps 600 mmHg 9%
14:00 +25°C° 0 mm 1 mps 600 mmHg 8%
15:00 +25°C° 0 mm 1 mps 600 mmHg 8%
16:00 +25°C° 0 mm 2 mps 600 mmHg 8%
17:00 +25°C° 0 mm 2 mps 600 mmHg 8%
18:00 +23°C° 0 mm 2 mps 600 mmHg 10%
19:00 +20°C° 0 mm 2 mps 599 mmHg 13%
20:00 +19°C° 0 mm 1 mps 599 mmHg 16%
21:00 +18°C° 0 mm 1 mps 599 mmHg 18%
22:00 +16°C° 0 mm 1 mps 598 mmHg 20%
23:00 +15°C° 0 mm 1 mps 598 mmHg 22%

5 October, Monday

Time Temperature Precipitation Wind Pressure Humidity
00:00 +14°C° 0 mm 1 mps 598 mmHg 23%
01:00 +13°C° 0 mm 1 mps 597 mmHg 24%
02:00 +13°C° 0 mm 1 mps 597 mmHg 26%
03:00 +12°C° 0 mm 1 mps 597 mmHg 27%
04:00 +12°C° 0 mm 1 mps 596 mmHg 28%
05:00 +11°C° 0 mm 1 mps 596 mmHg 29%
06:00 +12°C° 0 mm 1 mps 597 mmHg 27%
07:00 +13°C° 0 mm 1 mps 597 mmHg 26%
08:00 +14°C° 0 mm 1 mps 598 mmHg 24%
09:00 +16°C° 0 mm 1 mps 598 mmHg 21%
10:00 +19°C° 0 mm 1 mps 599 mmHg 18%
11:00 +20°C° 0 mm 1 mps 599 mmHg 15%
12:00 +22°C° 0 mm 1 mps 599 mmHg 13%
13:00 +23°C° 0 mm 1 mps 599 mmHg 11%
14:00 +24°C° 0 mm 1 mps 599 mmHg 9%
15:00 +24°C° 0 mm 1 mps 599 mmHg 9%
16:00 +24°C° 0 mm 2 mps 599 mmHg 9%
17:00 +24°C° 0 mm 2 mps 599 mmHg 8%
18:00 +21°C° 0 mm 2 mps 599 mmHg 11%
19:00 +20°C° 0 mm 1 mps 598 mmHg 13%
20:00 +18°C° 0 mm 1 mps 598 mmHg 16%
21:00 +18°C° 0 mm 1 mps 598 mmHg 18%
22:00 +16°C° 0 mm 1 mps 598 mmHg 19%
23:00 +14°C° 0 mm 0 mps 598 mmHg 21%
Show more

We Need Your Consent

Meteoprog and our Service Providers may store and access personal data such as cookies, device identifiers or other similar technologies on your device and process such data to personalise content and ads, as well as provide social media features and to analyse the traffic.

  • Store and/or access information on your device

    Cookies, device identifiers or other information can be stored or accessed on your device for the purposes indicated above.

  • Personalised ads and content, ad and content measurement, audience insights, and products development

    Ads and content can be personalised based on a profile. More data can be added to better personalise ads and content. Ad and content performance can be measured. Insights about the audience who saw the ads and content can be derived. Such data can be used to develop or improve user’s experience, systems and software.

By clicking ‘I Agree’ you will allow the use of indicated cookies, device identifiers, web beacons or other similar technologies. Your settings can be changed in the browser on your device.

For certain purposes, legitimate interests may be relied on, rather than consent. You can read more about this in our Privacy and Cookie Policy.